This demonstration page uses our WeatherBlox Daily Observations layout. Learn more.

Left ArrowRight Arrow

Hourly Observations for April 17, 2020

Temp ( °F °C ) Dew Point ( °F °C ) Humidity (%) Winds ( mph kmh ) Pressure ( in mb ) Visibility ( mi km ) Precip ( " mm )
12:53 am 00:53 Mostly Clear 66 18.9 26 -3.3 22 22 N 9 15 29.83 1010 10 16 0.00 0.00
1:53 am 01:53 Mostly Clear 65 18.3 25 -3.9 22 22 N 8 13 29.84 1011 10 16 0.00 0.00
2:53 am 02:53 Mostly Clear 64 17.8 24 -4.4 22 22 N 8 13 29.85 1011 10 16 0.00 0.00
3:53 am 03:53 Clear 62 16.7 23 -5 22 22 N 6 9 29.85 1011 10 16 0.00 0.00
4:53 am 04:53 Clear 61 16.1 22 -5.6 22 22 N 7 11 29.85 1011 10 16 0.00 0.00
5:53 am 05:53 Clear 60 15.6 22 -5.6 23 23 NNW 6 9 29.86 1011 10 16 0.00 0.00
6:53 am 06:53 Sunny 60 15.6 22 -5.6 23 23 NNW 7 11 29.87 1011 10 16 0.00 0.00
7:53 am 07:53 Sunny 63 17.2 23 -5 22 22 N 9 15 29.88 1012 10 16 0.00 0.00
8:53 am 08:53 Sunny 65 18.3 25 -3.9 22 22 N 12 19 29.87 1012 10 16 0.00 0.00
9:53 am 09:53 Sunny 68 20 28 -2.2 22 22 N 9 15 29.87 1011 10 16 0.00 0.00
10:53 am 10:53 Sunny 71 21.7 30 -1.1 22 22 NNE 10 17 29.85 1011 10 16 0.00 0.00
11:53 am 11:53 Sunny 74 23.3 32 0 21 21 VRB 3 6 29.84 1011 10 16 0.00 0.00
12:53 pm 12:53 Mostly Sunny 76 24.4 31 -0.6 19 19 NNW 3 6 29.82 1010 10 16 0.00 0.00
1:53 pm 13:53 Sunny 77 25 35 1.7 22 22 Calm 29.80 1009 10 16 0.00 0.00
2:53 pm 14:53 Sunny 78 25.6 32 0 19 19 VRB 3 6 29.79 1009 10 16 0.00 0.00
3:53 pm 15:53 Sunny 79 26.1 30 -1.1 17 17 SSE 9 15 29.77 1008 10 16 0.00 0.00
4:53 pm 16:53 Sunny 76 24.4 36 2.2 23 23 S 10 17 29.77 1008 10 16 0.00 0.00
5:53 pm 17:53 Sunny 74 23.3 41 5 31 31 S 12 19 29.78 1008 10 16 0.00 0.00
6:53 pm 18:53 Sunny 71 21.7 47 8.3 42 42 SSE 10 17 29.79 1009 10 16 0.00 0.00
7:53 pm 19:53 Clear 67 19.4 47 8.3 49 49 SSE 12 19 29.80 1009 10 16 0.00 0.00
8:53 pm 20:53 Clear 67 19.4 49 9.4 53 53 S 10 17 29.83 1010 10 16 0.00 0.00
9:53 pm 21:53 Clear 65 18.3 50 10 59 59 S 13 20 29.87 1012 10 16 0.00 0.00
10:53 pm 22:53 Clear 63 17.2 49 9.4 60 60 S 10 17 29.90 1013 10 16 0.00 0.00
11:53 pm 23:53 Clear 60 15.6 46 7.8 60 60 SSW 14 22 29.92 1013 10 16 0.00 0.00

Powered by AerisWeather